Probability
7 8 10 12 15 16 15 13 11 9 6 4 4 6 8 6 4 3 3 1 0 0 0 0 0 0 0 0 0 0 0 0 0 0 0 0 0 0
7 7 9 10 13 14 14 12 11 9 6 4 4 6 7 5 3 3 2 1 0 0 0 0 0 0 0 0 0 0 0 0 0 0 0 0 0 0
5 5 5 7 8 9 9 9 9 8 5 3 3 5 6 5 3 3 2 0 0 0 0 0 0 0 0 0 0 0 0 0 0 0 0 0 0 0
5 4 3 3 4 5 4 5 5 5 5 4 3 4 6 6 4 3 2 1 0 0 0 0 0 0 0 0 0 0 0 0 0 0 0 0 0 0
6 4 3 3 4 4 4 4 3 4 6 7 6 7 7 7 5 4 3 2 1 0 0 0 0 0 0 0 0 0 0 0 0 0 0 0 0 0
7 6 4 3 3 4 5 5 4 5 7 8 9 9 7 6 5 4 3 2 1 0 0 0 0 0 0 0 0 0 0 0 0 0 0 0 0 0
8 7 5 3 2 3 4 4 5 7 7 7 7 7 6 6 5 3 2 1 0 0 0 0 0 0 0 0 0 0 0 0 0 0 0 0 0 0
11 8 5 2 2 2 2 1 3 5 5 4 4 5 5 5 5 3 2 1 1 0 0 0 0 0 0 1 0 0 0 0 0 0 0 0 0 0
11 9 6 4 4 4 3 3 3 2 2 1 2 3 4 4 4 3 3 2 2 1 1 0 0 0 0 1 0 0 0 0 0 0 0 0 0 0
10 9 9 7 5 5 6 6 6 3 1 0 1 3 3 3 3 3 3 3 2 2 2 1 0 0 0 1 0 0 0 0 0 0 0 0 0 0
7 7 8 7 4 2 4 7 8 5 2 1 1 2 2 2 3 3 3 3 2 2 3 2 1 1 0 0 0 0 0 0 0 0 0 0 0 0
8 8 7 4 2 0 2 5 6 4 3 3 3 2 2 2 2 2 3 3 3 3 3 3 3 2 1 0 0 0 0 0 0 0 0 0 0 0
10 9 7 3 1 0 1 2 2 2 2 3 3 3 2 2 2 2 3 4 3 3 3 3 3 3 2 1 0 0 0 0 0 0 0 0 0 0
7 7 4 1 0 0 0 0 0 0 0 1 3 3 3 3 3 3 4 5 4 3 3 3 3 3 2 1 0 0 0 0 0 0 0 0 0 0
3 2 1 0 0 0 0 1 1 1 0 1 2 3 3 3 3 3 4 5 4 3 3 3 4 4 4 2 1 1 1 1 1 1 0 0 0 0
1 1 1 1 1 1 1 2 2 2 1 1 2 3 3 3 3 3 3 3 3 2 3 4 5 6 5 4 3 2 2 2 3 2 1 1 1 1
2 2 2 2 2 2 3 3 3 3 2 1 1 3 3 3 3 3 3 1 1 1 3 4 5 5 4 3 2 2 2 2 3 3 3 3 4 4
4 4 4 4 4 4 3 3 3 3 3 2 1 2 2 1 1 2 2 1 0 1 3 3 4 3 1 1 1 0 1 1 3 5 6 5 5 5
4 5 6 6 6 5 4 3 3 3 3 2 1 1 1 0 0 1 1 0 1 2 3 3 2 1 0 0 0 0 0 1 2 4 5 5 3 2
4 6 6 6 6 5 4 3 3 3 3 2 0 0 0 0 0 0 0 0 2 3 3 2 1 0 0 0 0 0 0 0 1 1 3 4 3 2
4 5 6 6 5 4 3 3 3 3 3 2 1 0 0 0 0 0 0 0 1 2 1 1 0 0 0 0 0 0 0 0 0 0 1 3 5 5
4 4 4 4 4 3 3 3 3 3 3 2 1 0 0 0 0 0 0 0 0 0 0 0 0 0 0 0 0 0 0 0 0 0 1 2 4 5
3 3 3 3 3 3 3 3 3 3 3 2 1 0 0 0 0 0 0 0 0 0 1 1 1 0 0 0 0 0 0 0 0 0 0 1 2 2
Wind_Speed
2 3 3 2 2 2 1 1 1 1 1 1 0 1 1 2 5 3 4 7 7 7 7 7 7 7 7 6 5 5 4 4 5 5 5 6 6 5
1 2 2 3 3 2 2 2 1 1 1 1 0 1 1 1 3 2 2 6 8 8 8 8 8 8 8 7 6 6 5 5 5 5 5 5 5 5
2 2 2 2 2 3 3 2 1 1 1 2 1 1 1 1 1 1 2 3 4 8 8 9 8 8 8 8 7 6 6 5 5 5 5 5 5 5
2 2 3 3 3 2 2 2 2 1 1 2 1 1 1 2 1 2 1 2 2 6 8 9 9 8 8 8 7 7 6 6 6 6 6 5 5 5
2 2 2 3 3 3 3 2 2 2 1 1 2 1 0 1 1 1 1 0 1 3 6 6 7 8 8 8 8 7 7 6 6 6 6 5 5 5
1 1 1 2 2 3 3 3 3 3 2 1 1 1 0 0 1 1 1 0 1 0 1 3 4 6 7 7 8 8 7 7 7 7 6 6 6 5
2 1 1 1 1 1 2 2 3 2 2 1 1 1 1 0 0 1 0 1 1 0 0 1 2 3 4 5 7 7 7 7 7 7 7 7 6 6
3 2 1 1 0 1 2 2 2 2 2 2 2 2 1 1 1 1 0 1 1 1 1 1 2 2 3 3 6 7 8 7 7 7 7 7 7 7
3 3 3 3 3 3 2 2 2 3 3 1 2 2 2 1 1 1 1 1 1 1 1 1 0 1 1 3 7 9 9 8 8 7 7 7 7 7
2 2 2 3 4 5 4 3 2 1 2 3 2 3 2 2 2 2 2 2 1 1 1 1 1 1 1 1 5 8 8 8 8 7 7 8 7 7
2 2 1 2 4 5 4 3 3 3 2 1 3 3 4 4 3 1 1 1 1 1 1 1 1 1 1 2 3 7 8 8 8 8 8 8 8 6
1 0 2 2 3 5 3 3 4 3 4 4 3 4 4 4 4 3 2 2 1 1 1 0 1 0 1 1 1 3 4 5 7 7 8 8 7 4
2 1 1 2 1 3 3 3 4 5 4 4 3 2 2 2 2 3 2 2 2 1 1 1 1 1 1 1 2 2 3 3 3 4 7 8 7 6
3 2 1 1 3 4 4 5 6 6 4 3 2 2 1 1 1 2 3 3 3 4 3 2 2 2 2 2 2 2 2 3 3 3 3 5 7 8
3 3 3 5 5 5 6 7 5 4 4 3 2 2 1 1 1 2 3 4 4 5 4 3 3 2 2 2 2 2 2 2 3 3 3 3 4 4
2 3 5 7 7 6 5 5 4 3 3 3 2 2 1 1 1 1 1 2 2 2 3 3 3 3 3 3 3 3 2 2 2 2 2 3 3 3
2 3 3 3 3 3 4 3 3 3 3 3 3 2 2 2 1 1 1 2 2 2 2 2 2 2 3 4 3 3 3 3 2 2 2 2 3 3
2 3 4 4 5 4 3 3 2 2 2 2 2 2 2 2 2 1 2 2 2 2 2 2 1 1 2 3 3 3 3 2 2 2 2 2 3 2
2 4 4 4 5 4 3 3 2 1 1 2 2 2 2 2 2 2 2 2 2 2 2 1 1 1 3 4 3 3 3 2 2 2 3 3 3 3
4 4 4 4 4 3 3 3 2 1 2 2 2 2 2 3 2 3 2 2 2 2 2 2 1 2 3 4 3 3 4 3 3 3 3 2 2 2
4 4 4 4 4 3 2 3 2 2 2 2 2 2 2 3 3 3 2 3 3 2 3 2 3 4 3 2 3 3 3 4 3 3 3 3 3 3
4 4 4 3 3 3 3 3 3 2 2 2 2 2 2 2 3 4 3 3 2 2 3 2 2 2 2 3 4 4 3 2 2 4 4 4 3 4
3 3 3 4 3 3 3 3 3 2 2 2 2 2 2 2 2 3 3 3 3 3 3 3 2 2 3 3 3 3 4 3 2 2 3 4 5 6
Wind_Direction
304 312 306 310 305 295 295 279 254 270 279 253 216 118 126 131 146 166 167 179 181 182 184 185 188 187 188 188 189 187 185 189 193 196 201 203 208 213
301 317 316 317 318 317 312 301 282 262 271 275 291 153 136 118 140 155 180 172 181 185 189 188 191 190 189 189 190 190 190 192 194 196 200 201 204 209
332 338 327 324 328 330 324 318 309 301 276 293 277 148 115 96 141 215 195 183 188 194 194 194 195 195 192 190 191 192 193 194 195 197 199 203 205 207
346 342 339 343 336 325 325 322 316 300 257 281 270 234 189 154 171 240 224 212 193 190 197 196 196 196 194 191 190 191 194 196 199 200 201 204 206 208
357 350 347 350 347 338 329 326 313 311 285 255 275 259 214 187 182 254 270 266 234 176 188 195 199 200 197 193 193 193 198 200 202 204 207 210 212 213
10 7 356 352 343 333 334 343 333 327 315 296 285 279 245 245 139 238 297 298 292 183 163 184 189 199 201 197 196 197 201 204 206 209 211 213 213 214
354 5 355 28 16 337 338 348 339 335 330 321 313 331 337 11 296 252 256 280 269 212 179 206 171 189 197 205 202 202 202 204 209 214 217 218 218 218
344 355 17 39 238 280 319 329 319 308 323 328 321 326 319 310 319 310 288 273 259 233 198 241 178 187 193 192 197 192 197 206 213 217 219 219 220 222
358 356 345 12 7 357 336 300 291 261 234 261 300 306 301 305 295 294 291 269 251 240 192 244 209 202 205 199 182 184 190 199 208 214 217 218 219 221
337 351 3 12 5 355 335 330 322 327 260 226 247 275 291 296 273 254 253 260 233 218 155 206 206 239 246 209 188 183 193 198 201 206 213 216 219 223
317 351 12 46 29 3 341 332 330 319 312 283 254 257 265 272 272 286 276 253 248 224 170 188 206 253 245 213 195 194 199 202 205 207 211 216 217 218
303 66 64 64 38 13 349 330 317 318 326 315 287 267 252 245 239 226 246 257 261 259 162 198 194 122 290 250 199 181 202 212 216 218 217 219 213 212
310 296 77 79 15 335 317 295 291 300 297 285 272 265 251 236 222 212 220 227 236 246 238 196 220 217 229 270 261 207 197 200 207 227 222 220 213 207
314 345 43 344 323 309 295 282 294 301 279 277 277 268 260 259 257 239 227 229 229 235 236 223 228 229 239 257 267 253 221 213 208 206 207 212 219 226
314 329 305 276 280 278 265 272 282 280 276 272 272 278 274 261 271 259 242 235 241 243 238 224 223 235 234 242 253 261 267 243 213 206 202 200 209 207
276 291 275 263 264 272 275 261 244 253 267 272 272 273 275 273 275 288 281 262 257 254 244 236 235 236 243 241 238 250 247 245 239 227 219 223 213 209
290 275 277 279 270 265 263 254 240 235 244 256 269 277 282 281 271 265 266 265 262 266 261 241 238 241 246 238 237 241 246 245 242 233 223 237 236 223
261 276 282 281 280 276 275 267 247 243 246 249 250 262 279 286 277 268 262 255 265 269 265 257 243 265 278 272 242 247 251 253 250 241 227 236 253 246
245 265 271 275 279 281 280 282 277 257 249 257 263 268 272 276 278 270 265 267 264 267 271 264 259 273 279 287 283 236 240 246 253 246 238 239 246 243
241 255 262 265 269 273 278 285 281 273 270 263 262 269 275 275 274 271 258 265 276 277 280 268 253 257 260 269 278 274 241 236 238 245 245 246 255 256
254 258 261 263 270 266 264 270 271 258 258 258 258 255 262 269 275 277 274 273 271 274 281 279 264 262 260 266 273 274 269 243 238 241 245 243 249 251
261 263 264 257 261 268 262 259 257 249 249 249 255 255 258 261 270 272 270 269 263 268 280 278 273 276 275 269 273 273 273 270 266 261 255 241 235 238
254 260 264 268 260 255 264 270 274 271 251 255 265 261 267 268 269 273 275 273 275 279 284 285 283 282 281 275 278 282 282 273 265 265 277 273 254 250